FENGYUN 1C DEB, 37689

Orbit data source: Space-Track

FENGYUN 1C DEB, 37689 is space debris in SSO originally from a launch on Mon, 10 May 1999 UTC launched from the Taiyaun Space Center, China (TSC). Fengyun 1C debris stems from the Chinese weather satellite Fengyun-1C, which was intentionally destroyed by a Chinese anti-satellite missile in 2007. This event dramatically increased the amount of space debris, with thousands of trackable fragments posing hazards to satellites and human spaceflight. The Fengyun 1C debris cloud has become a focal point in discussions about space sustainability and the need for international regulations to prevent the creation of new debris.

Loading next visibility...
Identifier
37689, 1999-025ELE
Orbit
SSO
Country
Flag of CNCN / PRC
Related business
Manufacturer
Unknown
Mission
Spacecraft
Bus & Motor
Unknown
Mass
Unknown
Launch date (UTC)
1999-05-10 (27 years ago)
Launch vehicle
Unknown
Launch site
Taiyaun Space Center, China (TSC)
Object type
Payload
Rocket body
Debris
Shape & HBR
Unknown shape, 0.1 m
Radar Cross Section
Small (<0.1 m²)

Expand to show TLE details & history
Last TLE update: 1 week ago

TLE from 1 week ago
0 FENGYUN 1C DEB
1 37689U 99025ELE 26247.61941893  .00003925  00000-0  96530-3 0  9995
2 37689  98.9101 309.2491 0021829 156.3977 203.8223 14.52755419616681
Epoch: 2026-09-04T14:51Z
TLE epoch observation values (Epoch: 2026-09-04T14:51:57.795Z)
Latitude
-0.00005°
Longitude
102.51766°
Altitude
733.792 km
Speed
7.481 km/s
True Right ascension
20h 36m 59s
True Declination
0° 00' 00"
Sunlit
Object was in full shadow at epoch
Visualization orbit readout
Latitude
Unknown
Longitude
Unknown
Altitude
Unknown
Speed
Unknown
Apparent Right ascension
Unknown
Apparent Declination
Unknown
Sunlit
N/A
Visualization observer readout
Local Sidereal Time
09:44:52
Azimuth
Unknown
Elevation
Unknown
Doppler factor
Unknown
Orbital elements
Apogee altitude
729.269 km
Perigee altitude
698.307 km
Semi-major axis
7,091.925 km
Eccentricity
0.00218
Inclination
98.9101°
RAAN
309.2491°
Arg. of periapsis
156.3977°
True anomaly
203.72152°
Mean anomaly
203.8223°
Eccentric anomaly
203.77188°
Mean motion
3.6341 °/min
Orbital period
99.06 mins
BSTAR
0.0009653
Loading maneuver chart data...
Computing Atmospheric mass density...
Loading historical data...
Loading historical data...
Loading historical data...
Loading historical data...
Loading historical data...
Loading historical data...
Loading historical data...

Documentation

Showing up to 5 results
|